Time,TemperatureF,DewpointF,PressureIn,WindDirection,WindDirectionDegrees,WindSpeedMPH,WindSpeedGustMPH,Humidity,HourlyPrecipIn,Conditions,Clouds,dailyrainin,SoftwareType,DateUTC
2012-05-16 00:10:00,58.0,36.0,29.86,NNE,20,4.0,4.0,44,0.00,,,0.00,weatherlink.com 1.10,2012-05-16 07:10:00,
2012-05-16 00:25:00,58.7,35.0,29.86,NNE,16,4.0,5.0,42,0.00,,,0.00,weatherlink.com 1.10,2012-05-16 07:25:00,
2012-05-16 00:40:00,58.0,34.0,29.86,North,11,0.0,3.0,41,0.00,,,0.00,weatherlink.com 1.10,2012-05-16 07:40:00,
2012-05-16 00:55:00,56.5,30.0,29.86,NNE,30,1.0,3.0,37,0.00,,,0.00,weatherlink.com 1.10,2012-05-16 07:55:00,
2012-05-16 01:10:00,55.2,30.0,29.86,NNE,25,0.0,3.0,39,0.00,,,0.00,weatherlink.com 1.10,2012-05-16 08:10:00,
2012-05-16 01:25:00,53.7,30.0,29.86,NNE,16,2.0,4.0,41,0.00,,,0.00,weatherlink.com 1.10,2012-05-16 08:25:00,
2012-05-16 01:40:00,53.9,27.0,29.85,NNE,13,2.0,3.0,35,0.00,,,0.00,weatherlink.com 1.10,2012-05-16 08:40:00,
2012-05-16 01:55:00,55.5,23.0,29.85,NNE,18,3.0,4.0,28,0.00,,,0.00,weatherlink.com 1.10,2012-05-16 08:55:00,
2012-05-16 02:10:00,60.3,20.0,29.85,North,354,3.0,4.0,21,0.00,,,0.00,weatherlink.com 1.10,2012-05-16 09:10:00,
2012-05-16 02:25:00,61.4,23.0,29.85,North,6,1.0,4.0,23,0.00,,,0.00,weatherlink.com 1.10,2012-05-16 09:25:00,
2012-05-16 02:40:00,59.6,20.0,29.85,NNE,15,2.0,3.0,22,0.00,,,0.00,weatherlink.com 1.10,2012-05-16 09:40:00,
2012-05-16 02:55:00,56.4,20.0,29.85,North,356,0.0,3.0,24,0.00,,,0.00,weatherlink.com 1.10,2012-05-16 09:55:00,
2012-05-16 03:10:00,60.8,22.0,29.84,NNW,341,0.0,5.0,22,0.00,,,0.00,weatherlink.com 1.10,2012-05-16 10:10:00,
2012-05-16 03:25:00,61.5,17.0,29.84,NNE,25,3.0,4.0,18,0.00,,,0.00,weatherlink.com 1.10,2012-05-16 10:25:00,
2012-05-16 03:40:00,63.3,18.0,29.85,NNE,26,2.0,4.0,17,0.00,,,0.00,weatherlink.com 1.10,2012-05-16 10:40:00,
2012-05-16 04:10:00,63.9,18.0,29.85,North,9,2.0,5.0,17,0.00,,,0.00,weatherlink.com 1.10,2012-05-16 11:10:00,
2012-05-16 04:25:00,64.1,18.0,29.84,NNE,19,3.0,5.0,17,0.00,,,0.00,weatherlink.com 1.10,2012-05-16 11:25:00,
2012-05-16 04:40:00,63.5,22.0,29.84,NNW,345,1.0,4.0,20,0.00,,,0.00,weatherlink.com 1.10,2012-05-16 11:40:00,
2012-05-16 04:55:00,62.0,23.0,29.84,NNE,22,3.0,4.0,22,0.00,,,0.00,weatherlink.com 1.10,2012-05-16 11:55:00,
2012-05-16 05:10:00,60.1,21.0,29.84,NNE,27,4.0,4.0,22,0.00,,,0.00,weatherlink.com 1.10,2012-05-16 12:10:00,
2012-05-16 05:25:00,62.3,21.0,29.84,North,8,2.0,4.0,20,0.00,,,0.00,weatherlink.com 1.10,2012-05-16 12:25:00,
2012-05-16 05:40:00,64.2,18.0,29.85,NNE,22,3.0,5.0,17,0.00,,,0.00,weatherlink.com 1.10,2012-05-16 12:40:00,
2012-05-16 05:55:00,65.6,19.0,29.85,NNE,30,2.0,5.0,17,0.00,,,0.00,weatherlink.com 1.10,2012-05-16 12:55:00,
2012-05-16 06:10:00,66.0,20.0,29.86,NNE,16,3.0,4.0,17,0.00,,,0.00,weatherlink.com 1.10,2012-05-16 13:10:00,
2012-05-16 06:25:00,64.9,23.0,29.86,NNE,27,3.0,4.0,20,0.00,,,0.00,weatherlink.com 1.10,2012-05-16 13:25:00,
2012-05-16 06:40:00,65.0,23.0,29.86,NNE,18,2.0,4.0,20,0.00,,,0.00,weatherlink.com 1.10,2012-05-16 13:40:00,
2012-05-16 06:55:00,62.7,28.0,29.87,NNW,345,0.0,3.0,27,0.00,,,0.00,weatherlink.com 1.10,2012-05-16 13:55:00,
2012-05-16 07:10:00,62.8,24.0,29.87,North,5,2.0,4.0,23,0.00,,,0.00,weatherlink.com 1.10,2012-05-16 14:10:00,
2012-05-16 07:25:00,67.1,29.0,29.87,NNW,346,1.0,4.0,24,0.00,,,0.00,weatherlink.com 1.10,2012-05-16 14:25:00,
2012-05-16 07:41:00,69.2,26.0,29.88,NNE,18,2.0,4.0,20,0.00,,,0.00,weatherlink.com 1.10,2012-05-16 14:41:00,
2012-05-16 08:11:00,70.9,29.0,29.88,North,354,3.0,4.0,21,0.00,,,0.00,weatherlink.com 1.10,2012-05-16 15:11:00,
2012-05-16 08:26:00,73.3,26.0,29.88,NNW,335,0.0,2.0,17,0.00,,,0.00,weatherlink.com 1.10,2012-05-16 15:26:00,
2012-05-16 08:41:00,75.1,27.0,29.88,NW,313,0.0,2.0,17,0.00,,,0.00,weatherlink.com 1.10,2012-05-16 15:41:00,
2012-05-16 08:56:00,75.4,28.0,29.89,NNE,25,0.0,2.0,17,0.00,,,0.00,weatherlink.com 1.10,2012-05-16 15:56:00,
2012-05-16 09:26:00,76.1,30.0,29.88,NW,316,2.0,3.0,18,0.00,,,0.00,weatherlink.com 1.10,2012-05-16 16:26:00,
2012-05-16 09:41:00,76.9,30.0,29.88,NNW,335,0.0,3.0,18,0.00,,,0.00,weatherlink.com 1.10,2012-05-16 16:41:00,
2012-05-16 09:56:00,76.9,33.0,29.88,North,352,0.0,3.0,20,0.00,,,0.00,weatherlink.com 1.10,2012-05-16 16:56:00,
2012-05-16 10:11:00,77.1,29.0,29.88,NW,312,2.0,4.0,17,0.00,,,0.00,weatherlink.com 1.10,2012-05-16 17:11:00,
2012-05-16 10:26:00,78.2,30.0,29.88,NW,318,0.0,3.0,17,0.00,,,0.00,weatherlink.com 1.10,2012-05-16 17:26:00,
2012-05-16 10:57:00,78.1,28.0,29.88,North,9,4.0,4.0,16,0.00,,,0.00,weatherlink.com 1.10,2012-05-16 17:57:00,
2012-05-16 11:11:00,79.2,35.0,29.88,NNW,334,1.0,4.0,20,0.00,,,0.00,weatherlink.com 1.10,2012-05-16 18:11:00,
2012-05-16 11:26:00,80.5,35.0,29.87,NNE,12,1.0,4.0,19,0.00,,,0.00,weatherlink.com 1.10,2012-05-16 18:26:00,
2012-05-16 11:41:00,82.2,35.0,29.86,North,6,1.0,3.0,18,0.00,,,0.00,weatherlink.com 1.10,2012-05-16 18:41:00,
2012-05-16 11:56:00,82.9,34.0,29.86,WNW,297,2.0,5.0,17,0.00,,,0.00,weatherlink.com 1.10,2012-05-16 18:56:00,
2012-05-16 12:11:00,84.5,37.0,29.86,SW,223,1.0,3.0,18,0.00,,,0.00,weatherlink.com 1.10,2012-05-16 19:11:00,
2012-05-16 12:26:00,85.1,36.0,29.85,NW,316,0.0,3.0,17,0.00,,,0.00,weatherlink.com 1.10,2012-05-16 19:26:00,
2012-05-16 12:41:00,85.7,39.0,29.85,SSW,206,0.0,3.0,19,0.00,,,0.00,weatherlink.com 1.10,2012-05-16 19:41:00,
2012-05-16 12:56:00,85.6,36.0,29.85,NNE,33,0.0,3.0,17,0.00,,,0.00,weatherlink.com 1.10,2012-05-16 19:56:00,
2012-05-16 13:11:00,85.7,39.0,29.84,NW,304,1.0,2.0,19,0.00,,,0.00,weatherlink.com 1.10,2012-05-16 20:11:00,
2012-05-16 13:27:00,85.3,39.0,29.84,West,262,0.0,4.0,19,0.00,,,0.00,weatherlink.com 1.10,2012-05-16 20:27:00,
2012-05-16 13:42:00,83.8,41.0,29.84,West,260,1.0,4.0,22,0.00,,,0.00,weatherlink.com 1.10,2012-05-16 20:42:00,
2012-05-16 13:57:00,83.4,40.0,29.84,WSW,242,0.0,5.0,21,0.00,,,0.00,weatherlink.com 1.10,2012-05-16 20:57:00,
2012-05-16 14:12:00,83.7,40.0,29.83,WSW,248,1.0,4.0,21,0.00,,,0.00,weatherlink.com 1.10,2012-05-16 21:12:00,
2012-05-16 14:27:00,83.1,38.0,29.83,NNW,346,0.0,5.0,20,0.00,,,0.00,weatherlink.com 1.10,2012-05-16 21:27:00,
2012-05-16 14:42:00,83.8,41.0,29.82,NW,304,0.0,4.0,22,0.00,,,0.00,weatherlink.com 1.10,2012-05-16 21:42:00,
2012-05-16 14:57:00,83.3,41.0,29.81,SW,219,2.0,4.0,22,0.00,,,0.00,weatherlink.com 1.10,2012-05-16 21:57:00,
2012-05-16 15:12:00,83.8,40.0,29.81,NNE,12,1.0,5.0,21,0.00,,,0.00,weatherlink.com 1.10,2012-05-16 22:12:00,
2012-05-16 15:27:00,84.4,39.0,29.80,NNE,18,1.0,4.0,20,0.00,,,0.00,weatherlink.com 1.10,2012-05-16 22:27:00,
2012-05-16 15:42:00,83.7,37.0,29.80,NE,43,3.0,4.0,19,0.00,,,0.00,weatherlink.com 1.10,2012-05-16 22:42:00,
2012-05-16 15:57:00,83.4,41.0,29.80,SW,215,0.0,3.0,22,0.00,,,0.00,weatherlink.com 1.10,2012-05-16 22:57:00,
2012-05-16 16:12:00,84.0,39.0,29.80,ESE,120,0.0,3.0,20,0.00,,,0.00,weatherlink.com 1.10,2012-05-16 23:12:00,
2012-05-16 16:27:00,83.8,37.0,29.79,WNW,284,0.0,2.0,19,0.00,,,0.00,weatherlink.com 1.10,2012-05-16 23:27:00,
2012-05-16 16:42:00,83.3,37.0,29.79,West,271,0.0,3.0,19,0.00,,,0.00,weatherlink.com 1.10,2012-05-16 23:42:00,
2012-05-16 16:57:00,83.0,38.0,29.79,WSW,242,1.0,3.0,20,0.00,,,0.00,weatherlink.com 1.10,2012-05-16 23:57:00,
2012-05-16 17:12:00,81.7,38.0,29.79,SW,223,0.0,2.0,21,0.00,,,0.00,weatherlink.com 1.10,2012-05-17 00:12:00,
2012-05-16 17:27:00,80.4,37.0,29.79,NW,309,0.0,1.0,21,0.00,,,0.00,weatherlink.com 1.10,2012-05-17 00:27:00,
2012-05-16 17:42:00,79.3,39.0,29.79,WNW,295,0.0,2.0,24,0.00,,,0.00,weatherlink.com 1.10,2012-05-17 00:42:00,
2012-05-16 17:57:00,78.6,42.0,29.79,WNW,303,0.0,3.0,27,0.00,,,0.00,weatherlink.com 1.10,2012-05-17 00:57:00,
2012-05-16 18:12:00,77.4,42.0,29.78,North,352,0.0,3.0,28,0.00,,,0.00,weatherlink.com 1.10,2012-05-17 01:12:00,
2012-05-16 18:27:00,76.2,44.0,29.78,WSW,252,1.0,3.0,32,0.00,,,0.00,weatherlink.com 1.10,2012-05-17 01:27:00,
2012-05-16 18:42:00,75.1,46.0,29.78,NW,312,1.0,3.0,36,0.00,,,0.00,weatherlink.com 1.10,2012-05-17 01:42:00,
2012-05-16 18:57:00,74.0,48.0,29.78,NW,311,0.0,1.0,40,0.00,,,0.00,weatherlink.com 1.10,2012-05-17 01:57:00,
2012-05-16 19:12:00,72.4,49.0,29.78,West,264,0.0,1.0,43,0.00,,,0.00,weatherlink.com 1.10,2012-05-17 02:12:00,
2012-05-16 19:27:00,70.0,48.0,29.78,North,8,0.0,1.0,46,0.00,,,0.00,weatherlink.com 1.10,2012-05-17 02:27:00,
2012-05-16 19:42:00,66.1,38.0,29.77,NNE,15,1.0,2.0,36,0.00,,,0.00,weatherlink.com 1.10,2012-05-17 02:42:00,
2012-05-16 19:57:00,65.3,33.0,29.78,NNE,19,1.0,2.0,30,0.00,,,0.00,weatherlink.com 1.10,2012-05-17 02:57:00,
2012-05-16 20:27:00,64.3,27.0,29.79,NNE,19,2.0,2.0,24,0.00,,,0.00,weatherlink.com 1.10,2012-05-17 03:27:00,
2012-05-16 20:42:00,64.1,28.0,29.79,North,6,1.0,2.0,26,0.00,,,0.00,weatherlink.com 1.10,2012-05-17 03:42:00,
2012-05-16 20:57:00,64.9,29.0,29.79,NNE,17,1.0,2.0,26,0.00,,,0.00,weatherlink.com 1.10,2012-05-17 03:57:00,
2012-05-16 21:12:00,66.4,30.0,29.79,NNE,19,2.0,3.0,26,0.00,,,0.00,weatherlink.com 1.10,2012-05-17 04:12:00,
2012-05-16 21:27:00,69.2,31.0,29.79,North,359,1.0,4.0,24,0.00,,,0.00,weatherlink.com 1.10,2012-05-17 04:27:00,
2012-05-16 21:42:00,70.7,31.0,29.79,North,354,1.0,3.0,23,0.00,,,0.00,weatherlink.com 1.10,2012-05-17 04:42:00,
2012-05-16 21:57:00,69.9,31.0,29.80,North,8,1.0,2.0,24,0.00,,,0.00,weatherlink.com 1.10,2012-05-17 04:57:00,
2012-05-16 22:12:00,70.0,35.0,29.79,North,360,2.0,5.0,28,0.00,,,0.00,weatherlink.com 1.10,2012-05-17 05:12:00,
2012-05-16 22:27:00,71.4,37.0,29.79,NNW,340,0.0,4.0,29,0.00,,,0.00,weatherlink.com 1.10,2012-05-17 05:27:00,
2012-05-16 22:42:00,66.8,40.0,29.79,NNE,17,1.0,2.0,37,0.00,,,0.00,weatherlink.com 1.10,2012-05-17 05:42:00,
2012-05-16 22:57:00,64.7,40.0,29.78,NNW,345,1.0,2.0,41,0.00,,,0.00,weatherlink.com 1.10,2012-05-17 05:57:00,
2012-05-16 23:12:00,65.5,39.0,29.78,NNE,12,1.0,2.0,38,0.00,,,0.00,weatherlink.com 1.10,2012-05-17 06:12:00,
2012-05-16 23:27:00,66.9,36.0,29.77,North,6,1.0,1.0,32,0.00,,,0.00,weatherlink.com 1.10,2012-05-17 06:27:00,
2012-05-16 23:42:00,67.0,35.0,29.77,North,349,1.0,2.0,31,0.00,,,0.00,weatherlink.com 1.10,2012-05-17 06:42:00,
2012-05-16 23:57:00,66.9,35.0,29.76,North,8,2.0,2.0,31,0.00,,,0.00,weatherlink.com 1.10,2012-05-17 06:57:00,